Terug naar catalogus

KONGJIAN HUANGJING JIANCE

ActiefWetenschapSSO
NORAD 67752·PAYLOAD·🇨🇳 China
Deze satellietnaam is nog niet bevestigd door officiële bronnen.

Gelanceerd Feb 12, 2026 vanaf South China Sea Launch Area

Loading…

Volgende Passages (komende 24 uur)

TLE

VersSource: Space-Track

Epoch: Sep 14, 2026, 07:06 UTC

1 67752U 26027G   26257.29603672  .00004687  00000-0  25988-3 0  9991
2 67752  97.5175  23.3686 0010796 305.6458  54.3768 15.14218531 32385

Volg KONGJIAN HUANGJING JIANCE in realtime met AllMySat

Download on the App Store